Location: Tuebingen alte Sternwarte
(48.5376°N, 9.0555°E)
Time: 02:44:59
(UTC+01:00)

Amateur Radio Satellites - All Passes

Search period start: 22 November 2017 02:14
Search period end: 23 November 2017 02:14
Location: Tuebingen alte Sternwarte, 48.5376°N, 9.0555°E

Satellite Date Start Highest point End Downlink Frequencies (MHz)
Time Altitude Azimuth
UKube-1 22 Nov 02:19:07 02:22:54 30° 264° (W) 02:26:43 .
CUBESAT XI-V 22 Nov 02:20:50 02:23:48 17° 59° (ENE) 02:26:48 437.345
PCSat 22 Nov 02:28:02 02:32:44 29° 321° (NW) 02:37:27 145.827
RS-15 22 Nov 02:32:24 02:44:24 62° 40° (NE) 02:55:42 29.354- 29.394
BEESAT 3 22 Nov 02:32:42 02:36:06 27° 117° (ESE) 02:39:30 437.485
Gurwin Techsat 1B 22 Nov 02:43:41 02:49:01 76° 289° (WNW) 02:54:19 435.225
nSIGHT-1 22 Nov 02:48:17 02:51:21 42° 212° (SSW) 02:54:23 .
M-CUBED/EXP-1 PRIME 22 Nov 03:02:56 03:07:15 42° 104° (ESE) 03:11:39 437.505
SO-50 22 Nov 03:12:10 03:13:50 12° 11° (N) 03:15:31 436.795
AO-7 22 Nov 03:20:10 03:27:53 39° 98° (E) 03:35:34 .
AO-85 22 Nov 03:24:51 03:25:47 11° 108° (ESE) 03:26:44 145.980
BEESAT 22 Nov 03:26:12 03:30:45 44° 261° (W) 03:35:20 436.000
ISS 22 Nov 03:34:25 03:37:08 24° 218° (SW) 03:39:48 437.550
ITUPSAT 1 22 Nov 03:36:31 03:40:55 37° 263° (W) 03:45:22 437.325
MOZHAYETS 4 22 Nov 03:44:12 03:47:56 24° 267° (W) 03:51:40
BEESAT 2 22 Nov 03:45:02 03:48:50 43° 121° (ESE) 03:52:43 435.950
KKS-1 22 Nov 03:54:11 03:58:11 33° 66° (ENE) 04:02:12 437.445
Oscar 19 22 Nov 03:54:46 03:58:00 17° 304° (NW) 04:01:14 437.125/150
YUBILEINY 22 Nov 03:55:18 04:00:07 16° 72° (ENE) 04:04:59 435.215
CUBESAT XI-V 22 Nov 03:56:05 04:00:40 69° 258° (WSW) 04:05:18 437.345
ITAMSAT 1 22 Nov 04:07:51 04:13:02 61° 102° (ESE) 04:18:10 435.822/435.867
BEESAT 3 22 Nov 04:09:42 04:13:30 40° 316° (NW) 04:17:19 437.485
PCSat 22 Nov 04:15:51 04:18:01 12° 346° (NNW) 04:20:10 145.827
STARS 22 Nov 04:17:05 04:20:40 25° 63° (ENE) 04:24:16 437.465
Gurwin Techsat 1B 22 Nov 04:25:22 04:28:07 14° 307° (NW) 04:30:52 435.225
DOVE 4 22 Nov 04:31:07 04:35:15 23° 90° (E) 04:39:13 437.250
M-CUBED/EXP-1 PRIME 22 Nov 04:37:36 04:41:27 29° 301° (WNW) 04:45:24 437.505
RS-15 22 Nov 04:45:29 04:56:44 53° 247° (WSW) 05:07:26 29.354- 29.394
SO-50 22 Nov 04:51:56 04:55:51 26° 35° (NE) 04:59:48 436.795
AO-85 22 Nov 05:01:30 05:05:25 89° 308° (NW) 05:09:33 145.980
STRAND 1 22 Nov 05:09:04 05:11:36 14° 53° (NE) 05:14:09 437.568
AO-7 22 Nov 05:12:50 05:20:58 58° 298° (WNW) 05:29:05 .
BEESAT 2 22 Nov 05:23:09 05:26:42 29° 321° (NW) 05:30:18 435.950
KKS-1 22 Nov 05:30:44 05:34:43 31° 264° (W) 05:38:44 437.445
XW-2D 22 Nov 05:33:56 05:36:22 16° 91° (E) 05:38:47 145.860 - 145.880
FO-29 22 Nov 05:39:38 05:43:05 14° 42° (NE) 05:46:37 435.910
CUTE-I 22 Nov 05:45:16 05:49:19 21° 91° (E) 05:53:18 437.470
YUBILEINY 22 Nov 05:46:33 05:55:14 71° 94° (E) 06:04:00 435.215
ITAMSAT 1 22 Nov 05:48:03 05:52:06 23° 301° (WNW) 05:56:07 435.822/435.867
XW-2B 22 Nov 05:48:20 05:51:21 22° 93° (E) 05:54:21 145.730 - 145.750
BEESAT 3 22 Nov 05:50:31 05:52:04 12° 338° (NNW) 05:53:37 437.485
STARS 22 Nov 05:52:35 05:56:47 42° 261° (W) 06:01:02 437.465
NUDT-PHONESAT 22 Nov 06:00:17 06:03:08 21° 93° (E) 06:05:58 437.300
PCSat 22 Nov 06:01:55 06:03:59 12° 13° (NNE) 06:06:03 145.827
DOVE 4 22 Nov 06:08:08 06:13:15 54° 290° (WNW) 06:18:08 437.250
XW-2C 22 Nov 06:13:32 06:17:10 41° 98° (E) 06:20:48 145.795 - 145.815
LilacSat-2 22 Nov 06:16:22 06:20:07 48° 100° (E) 06:23:50 437.200
XW-2F 22 Nov 06:23:31 06:27:13 50° 100° (E) 06:30:55 145.980 - 146.000
HO-68 22 Nov 06:26:44 06:32:28 25° 91° (E) 06:38:09 435.675
SO-50 22 Nov 06:32:05 06:36:42 67° 235° (SW) 06:41:21 436.795
CUTE 1.7 + AOD 2 22 Nov 06:33:55 06:37:02 19° 91° (E) 06:40:09 437.475
AO-85 22 Nov 06:43:34 06:46:27 19° 331° (NNW) 06:49:28 145.980
STRAND 1 22 Nov 06:44:49 06:49:57 76° 73° (ENE) 06:55:07 437.568
KAITUO 1B 22 Nov 06:50:05 06:53:51 80° 102° (ESE) 06:57:38 145.475/437.950
UWE-3 22 Nov 06:58:17 06:59:36 11° 87° (E) 07:00:54 435.000/436.395/437.385
SEEDS 22 Nov 07:02:41 07:06:08 24° 93° (E) 07:09:35 437.485
RS-15 22 Nov 07:03:05 07:05:54 11° 271° (W) 07:08:42 29.354- 29.394
BEESAT 2 22 Nov 07:05:17 07:05:43 10° 343° (NNW) 07:06:09 435.950
AO-7 22 Nov 07:06:53 07:12:05 19° 321° (NW) 07:17:18 .
XW-2D 22 Nov 07:07:07 07:10:46 46° 289° (WNW) 07:14:26 145.860 - 145.880
AAUSAT CUBESAT 2 22 Nov 07:08:24 07:10:13 12° 88° (E) 07:12:02 437.432
XW-2A 22 Nov 07:11:53 07:13:07 12° 90° (E) 07:14:22 145.665 - 145.685
FO-29 22 Nov 07:19:43 07:26:17 50° 64° (ENE) 07:33:32 435.910
XW-2B 22 Nov 07:22:08 07:25:35 34° 291° (WNW) 07:29:03 145.730 - 145.750
CUTE-I 22 Nov 07:24:28 07:29:48 63° 290° (WNW) 07:35:05 437.470
NUDT-PHONESAT 22 Nov 07:33:41 07:37:04 34° 291° (WNW) 07:40:26 437.300
AO-73 22 Nov 07:36:39 07:38:49 14° 89° (E) 07:41:00 145.935
CUBEBUG 2 22 Nov 07:37:21 07:41:26 48° 99° (E) 07:45:26 437.445
PCSat 22 Nov 07:44:38 07:49:18 28° 38° (NE) 07:53:56 145.827
YUBILEINY 22 Nov 07:45:15 07:52:51 32° 297° (WNW) 08:00:32 435.215
UNISAT 6 22 Nov 07:45:27 07:47:43 14° 58° (ENE) 07:49:58 437.425
XW-2C 22 Nov 07:48:22 07:51:05 19° 296° (WNW) 07:53:49 145.795 - 145.815
DOVE 4 22 Nov 07:49:05 07:49:45 10° 310° (NW) 07:50:26 437.250
TIGRISAT 22 Nov 07:49:34 07:51:51 14° 58° (ENE) 07:54:06 435.000
LilacSat-2 22 Nov 07:51:30 07:54:02 17° 297° (WNW) 07:56:35 437.200
Oscar 11 22 Nov 07:52:03 07:54:28 15° 89° (E) 07:56:55 .
XW-2F 22 Nov 07:58:35 08:00:58 16° 297° (WNW) 08:03:22 145.980 - 146.000
CUTE 1.7 + AOD 2 22 Nov 08:09:00 08:13:07 48° 289° (WNW) 08:17:13 437.475
HO-68 22 Nov 08:13:42 08:20:54 76° 291° (WNW) 08:28:02 435.675
ZACube-1 22 Nov 08:20:55 08:24:54 43° 98° (E) 08:28:52 437.345
KAITUO 1B 22 Nov 08:26:09 08:27:16 11° 301° (WNW) 08:28:22 145.475/437.950
STRAND 1 22 Nov 08:26:29 08:29:43 17° 271° (W) 08:32:58 437.568
PRISM 22 Nov 08:29:52 08:31:49 13° 57° (ENE) 08:33:47 437.425
UWE-3 22 Nov 08:32:27 08:36:37 78° 287° (WNW) 08:40:45 435.000/436.395/437.385
SEEDS 22 Nov 08:37:59 08:41:56 38° 291° (WNW) 08:45:53 437.485
AAUSAT CUBESAT 2 22 Nov 08:41:58 08:46:09 73° 287° (WNW) 08:50:20 437.432
XW-2A 22 Nov 08:42:50 08:46:07 50° 287° (WNW) 08:49:24 145.665 - 145.685
FO-29 22 Nov 09:05:09 09:11:28 40° 267° (W) 09:18:29 435.910
DELFI C3 22 Nov 09:05:29 09:08:13 18° 91° (E) 09:10:57 145.870
CUTE-I 22 Nov 09:06:43 09:08:50 12° 309° (NW) 09:10:57 437.470
BEESAT 3 22 Nov 09:08:35 09:10:45 14° 26° (NNE) 09:12:54 437.485
AO-73 22 Nov 09:11:24 09:15:30 63° 287° (WNW) 09:19:36 145.935
CUBEBUG 2 22 Nov 09:14:45 09:17:44 19° 298° (WNW) 09:20:41 437.445
UNISAT 6 22 Nov 09:19:16 09:23:50 86° 260° (W) 09:28:18 437.425
TIGRISAT 22 Nov 09:23:22 09:27:56 86° 257° (WSW) 09:32:25 435.000
Oscar 11 22 Nov 09:26:45 09:31:04 66° 286° (WNW) 09:35:20 .
PCSat 22 Nov 09:27:46 09:33:11 70° 240° (WSW) 09:38:33 145.827
EO-88 22 Nov 09:55:55 09:59:08 29° 96° (E) 10:02:21 145.990 - 145.960
ZACube-1 22 Nov 09:57:49 10:00:56 21° 296° (WNW) 10:04:04 437.345
AIST 2D 22 Nov 09:59:16 10:02:10 25° 68° (ENE) 10:05:05 435.315
Max Valier Satellite 22 Nov 09:59:28 10:03:00 44° 99° (E) 10:06:31 145.860
PRISM 22 Nov 10:02:21 10:06:29 81° 257° (WSW) 10:10:40 437.425
HO-68 22 Nov 10:02:40 10:07:33 20° 312° (NW) 10:12:25 435.675
AO-85 22 Nov 10:08:45 10:10:58 13° 21° (NNE) 10:13:16 145.980
UWE-3 22 Nov 10:12:16 10:12:20 10° 304° (NW) 10:12:23 435.000/436.395/437.385
BEESAT 2 22 Nov 10:21:48 10:24:42 18° 31° (NNE) 10:27:35 435.950
DUCHIFAT 1 22 Nov 10:24:44 10:27:40 19° 62° (ENE) 10:30:36 145.980
EO-79 22 Nov 10:32:28 10:36:03 27° 65° (ENE) 10:39:37 145.935-145.965
NANOSAT C BR1 22 Nov 10:35:09 10:38:40 26° 65° (ENE) 10:42:09 145.865
DELFI C3 22 Nov 10:39:22 10:43:13 46° 289° (WNW) 10:47:03 145.870
BEESAT 3 22 Nov 10:45:11 10:49:08 57° 48° (NE) 10:52:58 437.485
POLYITAN 1 22 Nov 10:47:39 10:51:33 37° 69° (ENE) 10:55:28 437.675
ESTCUBE 1 22 Nov 10:48:11 10:50:49 15° 89° (E) 10:53:28 437.505/2401.250
UNISAT 6 22 Nov 11:00:09 11:01:10 11° 274° (W) 11:02:12 437.425
TIGRISAT 22 Nov 11:04:20 11:05:16 11° 274° (W) 11:06:11 435.000
QB50P2 22 Nov 11:10:40 11:14:53 70° 74° (ENE) 11:19:08 145.880/145.840
BUGSAT 1 22 Nov 11:13:49 11:16:27 16° 61° (ENE) 11:19:04 437.445
PCSat 22 Nov 11:13:54 11:15:34 11° 258° (WSW) 11:17:15 145.827
EO-88 22 Nov 11:29:42 11:32:40 24° 294° (WNW) 11:35:39 145.990 - 145.960
AIST 2D 22 Nov 11:32:28 11:35:18 23° 266° (W) 11:38:09 435.315
Max Valier Satellite 22 Nov 11:34:07 11:36:30 17° 297° (WNW) 11:38:53 145.860
AO-85 22 Nov 11:48:13 11:52:31 40° 43° (NE) 11:57:08 145.980
LO-87 22 Nov 11:50:22 11:53:56 88° 106° (ESE) 11:57:27 145.935 - 145.965
SPROUT 22 Nov 11:53:59 11:56:49 17° 91° (E) 11:59:38 437.525
Oscar 19 22 Nov 11:56:35 12:00:56 29° 62° (ENE) 12:05:18 437.125/150
FALCONSAT 3 22 Nov 11:58:47 11:59:44 11° 182° (S) 12:00:41 435.103
DUCHIFAT 1 22 Nov 11:58:50 12:02:58 53° 260° (W) 12:07:06 145.980
BEESAT 2 22 Nov 11:58:56 12:03:00 90° 314° (NW) 12:07:00 435.950
EO-79 22 Nov 12:07:49 12:11:41 34° 263° (W) 12:15:35 145.935-145.965
NANOSAT C BR1 22 Nov 12:10:19 12:14:13 36° 263° (W) 12:18:08 145.865
M-CUBED/EXP-1 PRIME 22 Nov 12:20:42 12:22:06 12° 49° (NE) 12:23:33 437.505
BEESAT 3 22 Nov 12:23:33 12:26:16 18° 247° (WSW) 12:28:56 437.485
ESTCUBE 1 22 Nov 12:23:35 12:28:06 69° 287° (WNW) 12:32:36 437.505/2401.250
POLYITAN 1 22 Nov 12:23:57 12:27:26 24° 266° (W) 12:30:55 437.675
Gurwin Techsat 1B 22 Nov 12:29:16 12:34:11 40° 66° (ENE) 12:39:08 435.225
AO-7 22 Nov 12:33:50 12:39:46 22° 43° (NE) 12:45:42 .
O/OREOS (USA 219) 22 Nov 12:35:45 12:38:43 17° 100° (E) 12:41:43 437.305
VELOX 1 22 Nov 12:39:42 12:43:42 32° 96° (E) 12:47:41 145.980
BUGSAT 1 22 Nov 12:47:13 12:51:22 61° 258° (WSW) 12:55:30 437.445
QB50P2 22 Nov 12:49:04 12:51:09 13° 271° (W) 12:53:14 145.880/145.840
50 SAT 22 Nov 13:20:21 13:22:38 18° 94° (E) 13:24:53 437.505
DX 1 22 Nov 13:22:13 13:25:37 21° 93° (E) 13:28:58 434.975-435.025
AO-85 22 Nov 13:28:39 13:32:58 38° 241° (WSW) 13:37:33 145.980
SPROUT 22 Nov 13:28:53 13:33:02 53° 289° (WNW) 13:37:09 437.525
Oscar 19 22 Nov 13:35:10 13:40:04 45° 261° (W) 13:45:00 437.125/150
BEESAT 2 22 Nov 13:38:45 13:40:03 11° 251° (WSW) 13:41:21 435.950
ITAMSAT 1 22 Nov 13:51:45 13:55:47 23° 59° (ENE) 13:59:50 435.822/435.867
M-CUBED/EXP-1 PRIME 22 Nov 13:52:08 13:55:46 88° 73° (ENE) 13:59:45 437.505
YUBILEINY 22 Nov 13:57:57 14:00:32 11° 41° (NE) 14:03:07 435.215
UKube-1 22 Nov 14:01:37 14:05:33 33° 97° (E) 14:09:27 .
ESTCUBE 1 22 Nov 14:03:08 14:04:03 11° 306° (NW) 14:05:00 437.505/2401.250
Gurwin Techsat 1B 22 Nov 14:09:25 14:14:12 34° 265° (W) 14:19:01 435.225
O/OREOS (USA 219) 22 Nov 14:13:04 14:17:38 64° 299° (WNW) 14:22:14 437.305
VELOX 1 22 Nov 14:16:10 14:20:07 32° 294° (WNW) 14:24:03 145.980
AO-7 22 Nov 14:23:01 14:31:14 73° 65° (ENE) 14:39:31 .
NO-84 22 Nov 14:24:21 14:26:27 15° 127° (SE) 14:28:39 435.350 FM
50 SAT 22 Nov 14:51:56 14:54:47 29° 291° (WNW) 14:57:37 437.505
DX 1 22 Nov 14:57:48 15:02:00 45° 291° (WNW) 15:06:10 434.975-435.025
BEESAT 22 Nov 15:22:12 15:26:32 34° 97° (E) 15:30:50 436.000
ITAMSAT 1 22 Nov 15:29:40 15:34:50 62° 258° (WSW) 15:40:04 435.822/435.867
ITUPSAT 1 22 Nov 15:32:35 15:37:07 41° 98° (E) 15:41:36 437.325
MOZHAYETS 4 22 Nov 15:34:01 15:38:32 58° 101° (E) 15:43:03
UKube-1 22 Nov 15:37:44 15:41:30 29° 295° (WNW) 15:45:14 .
DOVE 4 22 Nov 15:39:18 15:43:55 35° 65° (ENE) 15:48:40 437.250
CUBESAT XI-V 22 Nov 15:49:05 15:52:48 23° 92° (E) 15:56:30 437.345
YUBILEINY 22 Nov 15:52:00 16:00:24 44° 69° (ENE) 16:08:42 435.215
O/OREOS (USA 219) 22 Nov 15:55:59 15:58:01 13° 320° (NW) 16:00:03 437.305
NO-84 22 Nov 15:59:23 16:03:09 79° 146° (SSE) 16:07:13 435.350 FM
AO-7 22 Nov 16:17:41 16:24:42 30° 266° (W) 16:31:47 .
XW-2D 22 Nov 16:19:13 16:21:18 14° 62° (ENE) 16:23:24 145.860 - 145.880
XW-2B 22 Nov 16:33:23 16:36:04 19° 64° (ENE) 16:38:46 145.730 - 145.750
NUDT-PHONESAT 22 Nov 16:43:12 16:45:37 17° 63° (ENE) 16:48:04 437.300
XW-2C 22 Nov 16:58:12 17:01:36 34° 69° (ENE) 17:05:01 145.795 - 145.815
HO-68 22 Nov 16:59:41 17:05:42 30° 55° (NE) 17:11:43 435.675
BEESAT 22 Nov 17:00:01 17:04:17 33° 295° (WNW) 17:08:30 436.000
LilacSat-2 22 Nov 17:01:37 17:05:08 40° 70° (ENE) 17:08:42 437.200
RS-15 22 Nov 17:04:06 17:12:27 22° 97° (E) 17:20:44 29.354- 29.394
XW-2F 22 Nov 17:07:36 17:11:05 40° 70° (ENE) 17:14:37 145.980 - 146.000
CUTE-I 22 Nov 17:10:23 17:15:31 49° 68° (ENE) 17:20:42 437.470
ITUPSAT 1 22 Nov 17:10:44 17:14:46 28° 297° (WNW) 17:18:48 437.325
MOZHAYETS 4 22 Nov 17:12:02 17:15:18 20° 299° (WNW) 17:18:33
DOVE 4 22 Nov 17:16:46 17:21:30 38° 265° (W) 17:26:26 437.250
KKS-1 22 Nov 17:17:11 17:21:22 37° 98° (E) 17:25:28 437.445
CUBESAT XI-V 22 Nov 17:25:54 17:30:24 48° 290° (WNW) 17:34:55 437.345
CUTE 1.7 + AOD 2 22 Nov 17:30:07 17:33:23 22° 64° (ENE) 17:36:41 437.475
KAITUO 1B 22 Nov 17:33:06 17:36:44 62° 73° (ENE) 17:40:24 145.475/437.950
NO-84 22 Nov 17:37:06 17:40:48 38° 347° (NNW) 17:44:43 435.350 FM
STARS 22 Nov 17:38:05 17:41:47 25° 95° (E) 17:45:24 437.465
YUBILEINY 22 Nov 17:48:57 17:57:22 51° 271° (W) 18:05:47 435.215
XW-2D 22 Nov 17:51:23 17:55:03 56° 260° (W) 17:58:46 145.860 - 145.880
SEEDS 22 Nov 17:57:48 18:01:17 26° 65° (ENE) 18:04:48 437.485
UWE-3 22 Nov 17:58:04 18:00:54 17° 61° (ENE) 18:03:41 435.000/436.395/437.385
AAUSAT CUBESAT 2 22 Nov 18:02:02 18:04:19 15° 60° (ENE) 18:06:37 437.432
XW-2B 22 Nov 18:06:29 18:09:59 39° 262° (W) 18:13:33 145.730 - 145.750
NUDT-PHONESAT 22 Nov 18:15:42 18:19:10 42° 261° (W) 18:22:41 437.300
XW-2C 22 Nov 18:33:01 18:35:52 21° 267° (W) 18:38:45 145.795 - 145.815
AO-73 22 Nov 18:35:26 18:38:24 19° 62° (ENE) 18:41:21 145.935
LilacSat-2 22 Nov 18:36:58 18:39:35 18° 268° (W) 18:42:14 437.200
CUBEBUG 2 22 Nov 18:38:22 18:42:53 65° 73° (ENE) 18:47:16 437.445
XW-2F 22 Nov 18:42:50 18:45:23 18° 268° (W) 18:47:57 145.980 - 146.000
HO-68 22 Nov 18:45:43 18:52:53 71° 255° (WSW) 19:00:08 435.675
Oscar 11 22 Nov 18:50:18 18:53:18 19° 62° (ENE) 18:56:20 .
CUTE-I 22 Nov 18:51:15 18:55:48 28° 267° (W) 19:00:23 437.470
STRAND 1 22 Nov 18:52:19 18:55:57 19° 90° (E) 18:59:35 437.568
KKS-1 22 Nov 18:53:59 18:57:47 28° 296° (WNW) 19:01:34 437.445
CUTE 1.7 + AOD 2 22 Nov 19:05:00 19:08:59 42° 262° (W) 19:13:01 437.475
KAITUO 1B 22 Nov 19:09:47 19:11:07 12° 272° (W) 19:12:27 145.475/437.950
RS-15 22 Nov 19:10:34 19:22:49 74° 121° (ESE) 19:34:56 29.354- 29.394
STARS 22 Nov 19:14:08 19:18:12 38° 293° (WNW) 19:22:15 437.465
NO-84 22 Nov 19:15:05 19:18:52 35° 9° (N) 19:22:48 435.350 FM
XW-2A 22 Nov 19:16:52 19:20:11 89° 266° (W) 19:23:32 145.665 - 145.685
ZACube-1 22 Nov 19:19:54 19:24:06 54° 72° (ENE) 19:28:13 437.345
UWE-3 22 Nov 19:32:33 19:36:56 63° 259° (W) 19:41:13 435.000/436.395/437.385
SEEDS 22 Nov 19:33:02 19:36:51 34° 264° (W) 19:40:42 437.485
AAUSAT CUBESAT 2 22 Nov 19:35:08 19:39:14 70° 258° (WSW) 19:43:24 437.432
YUBILEINY 22 Nov 19:50:49 19:51:53 10° 294° (WNW) 19:52:57 435.215
DELFI C3 22 Nov 19:54:23 19:57:05 18° 62° (ENE) 19:59:48 145.870
FO-29 22 Nov 20:09:55 20:17:02 35° 92° (E) 20:23:44 435.910
AO-73 22 Nov 20:10:08 20:14:19 52° 260° (W) 20:18:26 145.935
CUBEBUG 2 22 Nov 20:17:09 20:19:53 16° 270° (W) 20:22:36 437.445
ISS 22 Nov 20:17:26 20:19:13 14° 136° (SE) 20:20:59 437.550
Oscar 11 22 Nov 20:24:52 20:29:05 54° 260° (W) 20:33:19 .
STRAND 1 22 Nov 20:30:31 20:35:36 65° 289° (WNW) 20:40:39 437.568
EO-88 22 Nov 20:37:07 20:40:00 23° 66° (ENE) 20:42:53 145.990 - 145.960
HO-68 22 Nov 20:38:15 20:41:56 14° 276° (W) 20:45:37 435.675
Max Valier Satellite 22 Nov 20:41:36 20:44:55 34° 70° (ENE) 20:48:16 145.860
SO-50 22 Nov 20:51:37 20:54:13 15° 111° (ESE) 20:56:48 436.795
NO-84 22 Nov 20:52:29 20:56:42 75° 29° (NNE) 21:00:59 435.350 FM
ZACube-1 22 Nov 20:57:53 21:00:42 17° 270° (W) 21:03:29 437.345
O/OREOS (USA 219) 22 Nov 21:02:24 21:04:17 12° 39° (NE) 21:06:10 437.305
nSIGHT-1 22 Nov 21:03:31 21:06:29 36° 147° (SSE) 21:09:29 .
UNISAT 6 22 Nov 21:08:24 21:10:45 14° 89° (E) 21:13:06 437.425
TIGRISAT 22 Nov 21:12:20 21:14:42 14° 89° (E) 21:17:01 435.000
RS-15 22 Nov 21:24:16 21:36:13 51° 328° (NNW) 21:47:56 29.354- 29.394
DELFI C3 22 Nov 21:27:36 21:31:28 50° 260° (W) 21:35:22 145.870
PRISM 22 Nov 21:42:10 21:43:08 11° 87° (E) 21:44:06 437.425
ESTCUBE 1 22 Nov 21:50:58 21:54:27 22° 62° (ENE) 21:57:56 437.505/2401.250
ISS 22 Nov 21:51:56 21:55:12 68° 153° (SSE) 21:58:28 437.550
FO-29 22 Nov 21:54:39 22:02:24 61° 292° (WNW) 22:09:45 435.910
EO-88 22 Nov 22:10:18 22:13:31 30° 264° (W) 22:16:45 145.990 - 145.960
STRAND 1 22 Nov 22:12:02 22:13:49 12° 309° (NW) 22:15:37 437.568
Max Valier Satellite 22 Nov 22:16:08 22:18:50 20° 267° (W) 22:21:34 145.860
LO-87 22 Nov 22:29:17 22:32:50 60° 74° (ENE) 22:36:24 145.935 - 145.965
SO-50 22 Nov 22:29:34 22:34:03 81° 308° (NW) 22:38:36 436.795
NO-84 22 Nov 22:30:14 22:33:47 26° 227° (SW) 22:37:19 435.350 FM
nSIGHT-1 22 Nov 22:39:27 22:42:38 61° 346° (NNW) 22:45:50 .
O/OREOS (USA 219) 22 Nov 22:40:08 22:44:41 63° 61° (ENE) 22:49:10 437.305
UNISAT 6 22 Nov 22:43:41 22:47:56 64° 287° (WNW) 22:52:08 437.425
TIGRISAT 22 Nov 22:47:36 22:51:51 64° 287° (WNW) 22:56:02 435.000
SPROUT 22 Nov 22:50:34 22:53:52 22° 63° (ENE) 22:57:12 437.525
AIST 2D 22 Nov 22:53:12 22:55:46 19° 93° (E) 22:58:21 435.315
PRISM 22 Nov 23:14:47 23:18:59 84° 285° (WNW) 23:23:08 437.425
ESTCUBE 1 22 Nov 23:26:38 23:30:57 48° 261° (W) 23:35:20 437.505/2401.250
ISS 22 Nov 23:28:36 23:31:48 49° 354° (N) 23:34:59 437.550
DUCHIFAT 1 22 Nov 23:39:32 23:42:25 18° 91° (E) 23:45:18 145.980
VELOX 1 22 Nov 23:40:06 23:44:19 45° 69° (ENE) 23:48:35 145.980
FO-29 22 Nov 23:41:05 23:45:54 18° 314° (NW) 23:50:38 435.910
RS-15 22 Nov 23:41:07 23:52:12 36° 1° (N) 00:02:52 29.354- 29.394
EO-79 22 Nov 23:48:19 23:51:58 28° 95° (E) 23:55:35 145.935-145.965
NANOSAT C BR1 22 Nov 23:50:33 23:54:06 26° 95° (E) 23:57:37 145.865
50 SAT 22 Nov 23:51:54 23:53:10 12° 62° (ENE) 23:54:27 437.505
POLYITAN 1 23 Nov 00:03:53 00:07:50 39° 98° (E) 00:11:46 437.675
LO-87 23 Nov 00:05:22 00:06:37 11° 271° (W) 00:07:52 145.935 - 145.965
SO-50 23 Nov 00:11:53 00:15:13 20° 331° (NNW) 00:18:35 436.795
PCSat 23 Nov 00:12:51 00:18:04 50° 116° (ESE) 00:23:18 145.827
nSIGHT-1 23 Nov 00:16:02 00:19:09 47° 5° (N) 00:22:16 .
O/OREOS (USA 219) 23 Nov 00:20:39 00:23:35 17° 260° (W) 00:26:30 437.305
DX 1 23 Nov 00:20:58 00:24:48 30° 65° (ENE) 00:28:39 434.975-435.025
SPROUT 23 Nov 00:25:25 00:29:31 44° 261° (W) 00:33:38 437.525
AIST 2D 23 Nov 00:25:50 00:29:02 33° 290° (WNW) 00:32:14 435.315
BUGSAT 1 23 Nov 00:26:22 00:28:31 14° 89° (E) 00:30:40 437.445
QB50P2 23 Nov 00:27:11 00:31:25 78° 102° (ESE) 00:35:37 145.880/145.840
Gurwin Techsat 1B 23 Nov 00:44:02 00:45:19 11° 84° (E) 00:46:35 435.225
PRISM 23 Nov 00:52:13 00:53:33 11° 304° (NW) 00:54:53 437.425
BEESAT 23 Nov 00:59:08 00:59:46 10° 52° (NE) 01:00:24 436.000
UKube-1 23 Nov 00:59:14 01:03:21 45° 69° (ENE) 01:07:30 .
MOZHAYETS 4 23 Nov 01:05:18 01:07:20 13° 56° (NE) 01:09:23
ISS 23 Nov 01:05:19 01:08:34 60° 14° (NNE) 01:11:48 437.550
ITUPSAT 1 23 Nov 01:08:31 01:10:26 12° 54° (NE) 01:12:23 437.325
DUCHIFAT 1 23 Nov 01:14:20 01:18:22 49° 290° (WNW) 01:22:22 145.980
VELOX 1 23 Nov 01:17:30 01:20:58 22° 267° (W) 01:24:29 145.980
50 SAT 23 Nov 01:21:41 01:24:50 52° 259° (W) 01:28:02 437.505
EO-79 23 Nov 01:23:59 01:27:43 32° 293° (WNW) 01:31:27 145.935-145.965
NANOSAT C BR1 23 Nov 01:26:04 01:29:51 34° 293° (WNW) 01:33:37 145.865
POLYITAN 1 23 Nov 01:40:05 01:43:25 23° 296° (WNW) 01:46:44 437.675
Oscar 19 23 Nov 01:42:25 01:47:25 47° 99° (E) 01:52:22 437.125/150
nSIGHT-1 23 Nov 01:52:19 01:55:31 72° 205° (SSW) 01:58:42 .
SO-50 23 Nov 01:56:19 01:57:27 11° 356° (N) 01:58:35 436.795
PCSat 23 Nov 01:56:41 02:01:39 35° 317° (NW) 02:06:38 145.827
DX 1 23 Nov 01:57:00 02:00:55 32° 263° (W) 02:04:54 434.975-435.025
BUGSAT 1 23 Nov 02:00:18 02:04:17 60° 288° (WNW) 02:08:13 437.445
QB50P2 23 Nov 02:04:30 02:06:38 14° 302° (WNW) 02:08:45 145.880/145.840
